Weather History for KMKL - March, 2013

Change the Weather History Date:

Wednesday, March 20, 2013

  Actual Average Record
Temperature  
Mean Temperature 40 °F 52 °F  
Max Temperature 52 °F 64 °F 85 °F (2012)
Min Temperature 28 °F 40 °F 17 °F (1965)
Degree Days  
Heating Degree Days 25 13  
Month to date heating degree days 393 317  
Since 1 July heating degree days 3096 3201  
Cooling Degree Days 0 0  
Month to date cooling degree days 0 0  
Year to date cooling degree days 4 1  
Moisture  
Dew Point 27 °F    
Average Humidity 57    
Maximum Humidity 85    
Minimum Humidity 29    
Precipitation  
Precipitation 0.00 in 0.16 in 3.06 in (1980)
Month to date precipitation 2.89 2.95  
Year to date precipitation 14.83 11.19  
Snow  
Snow 0.00 in 0.00 in 0.10 in (1996)
Month to date snowfall T 0.2  
Since 1 July snowfall 1.4 4.4  
Snow Depth 0.00 in    
Sea Level Pressure  
Sea Level Pressure 30.16 in    
Wind  
Wind Speed 9 mph (NNW)    
Max Wind Speed 23 mph    
Max Gust Speed 30 mph    
Visibility 10 miles    
Events      
T = Trace of Precipitation, MM = Missing Value Source: NWS Daily Summary

Daily Weather History Graph

Daily Weather History Graph

Search for Another Location

Airport or City:

Trip Planner

Search our weather history database for the weather conditions in past years. The results will help you decide how hot, cold, wet, or windy it might be!

Date:

Astronomy

Mar. 20, 2013 Rise Set
Actual Time 6:58 AM CDT 7:07 PM CDT
Civil Twilight 6:33 AM CDT 7:33 PM CDT
Nautical Twilight 6:03 AM CDT 8:02 PM CDT
Astronomical Twilight 5:33 AM CDT 8:32 PM CDT
Moon 12:53 PM CDT (3/20) 2:27 AM CDT (3/20)
Length of Visible Light 12h 59m
Length of Day
12h 08m
First Quarter, 59% of the Moon is Illuminated
Mar 20
First Quarter
Mar 27
Full
Apr 2
Last Quarter
Apr 10
New
Apr 18
First Quarter

Hourly Weather History & Observations

Time (CDT) Temp. Windchill Dew Point Humidity Pressure Visibility Wind Dir Wind Speed Gust Speed Precip Events Conditions
12:53 AM 44.1 °F 42.5 °F 25.0 °F 47% 30.20 in 10.0 mi NNW 3.5 mph - N/A   Overcast
1:53 AM 39.9 °F - 28.9 °F 65% 30.20 in 10.0 mi Calm Calm - N/A   Overcast
2:53 AM 37.0 °F - 30.0 °F 76% 30.19 in 10.0 mi Calm Calm - N/A   Mostly Cloudy
3:53 AM 35.1 °F - 30.0 °F 82% 30.18 in 10.0 mi Calm Calm - N/A   Scattered Clouds
4:53 AM 34.0 °F - 27.0 °F 75% 30.18 in 10.0 mi Calm Calm - N/A   Clear
5:53 AM 32.0 °F - 28.9 °F 88% 30.18 in 10.0 mi Calm Calm - N/A   Clear
6:53 AM 30.0 °F - 27.0 °F 88% 30.20 in 10.0 mi Calm Calm - N/A   Clear
7:53 AM 32.0 °F - 28.9 °F 88% 30.22 in 10.0 mi Calm Calm - N/A   Clear
8:53 AM 44.1 °F 40.1 °F 30.0 °F 58% 30.23 in 10.0 mi NNW 6.9 mph - N/A   Clear
9:53 AM 46.9 °F - 32.0 °F 56% 30.22 in 10.0 mi NNW 9.2 mph - N/A   Clear
10:53 AM 48.9 °F - 32.0 °F 52% 30.22 in 10.0 mi WNW 13.8 mph - N/A   Clear
11:53 AM 50.0 °F - 34.0 °F 54% 30.22 in 10.0 mi NW 18.4 mph 24.2 mph N/A   Scattered Clouds
12:53 PM 50.0 °F - 30.9 °F 48% 30.20 in 10.0 mi NNW 11.5 mph - N/A   Partly Cloudy
1:53 PM 50.0 °F - 33.1 °F 52% 30.16 in 10.0 mi NW 16.1 mph 23.0 mph N/A   Mostly Cloudy
2:53 PM 51.1 °F - 30.9 °F 46% 30.13 in 10.0 mi WNW 13.8 mph 21.9 mph N/A   Scattered Clouds
3:53 PM 50.0 °F - 28.9 °F 44% 30.12 in 10.0 mi NW 17.3 mph 25.3 mph N/A   Mostly Cloudy
4:53 PM 48.0 °F - 27.0 °F 44% 30.10 in 10.0 mi NW 11.5 mph 23.0 mph N/A   Scattered Clouds
5:53 PM 48.9 °F - 25.0 °F 39% 30.08 in 10.0 mi West 16.1 mph 23.0 mph N/A   Scattered Clouds
6:53 PM 48.0 °F - 17.1 °F 29% 30.07 in 10.0 mi NW 12.7 mph 23.0 mph N/A   Clear
7:53 PM 45.0 °F 39.3 °F 15.1 °F 30% 30.08 in 10.0 mi NW 11.5 mph - N/A   Clear
8:53 PM 42.1 °F 35.7 °F 21.9 °F 45% 30.09 in 10.0 mi North 11.5 mph - N/A   Clear
9:53 PM 39.0 °F 32.3 °F 24.1 °F 55% 30.10 in 10.0 mi North 10.4 mph - N/A   Clear
10:53 PM 36.0 °F 28.5 °F 23.0 °F 59% 30.11 in 10.0 mi NNE 10.4 mph - N/A   Clear
11:53 PM 33.1 °F 26.1 °F 23.0 °F 66% 30.11 in 10.0 mi North 8.1 mph - N/A   Clear